Tracking 30970 objects as of 3-Jul-2025
HD Live streaming from Space Station
objects crossing your sky now

DELTA 1 DEB

Track DELTA 1 DEB now!
10-day predictions


NORAD ID: 21493
Int'l Code: 1975-052FN
Perigee: 979.7 km
Apogee: 2,200.6 km
Inclination: 99.7 °
Period: 117.8 minutes
Semi major axis: 7961 km
RCS: 0.04 m2 (small)
Launch date: June 12, 1975
Source: United States (US)
Launch site: AIR FORCE WESTERN TEST RANGE (AFWTR)

Note: This is SATELLITE DEBRIS
Your satellite tracking list
Your tracking list is empty




NASA's NSSDC Master Catalog

Two Line Element Set (TLE):
1 21493U 75052FN  25160.98358686  .00104201  00000-0  37624+0 0  9994
2 21493  99.7364 337.9116 0766765  54.2615  66.2371 12.22188006506948
Source of the keplerian elements: AFSPC